Content
SEND FEEDBACK

Daily
Averages
Monthly
Summary
United States of America

CHICAGO, ILLINOIS


Home > North America > United States > Illinois
Elevation: 674 feet     Latitude: 41 59N     Longitude: 087 54W

WEATHER
 
SELECT A DAY
Number of Records: 197,791;   Date Range: 7/8/95 - 10/19/14
 
SHARE

PRINT THIS DATA

[ ← Previous Day ]
WEATHER ALMANAC - APRIL 24, 2013
[ Next Day → ]
[ °C ]   °F
Weather ElementAverageHighLow
Temperature42.3 °F50 °F (4:52 pm)37 °F (3:52 am)
Dewpoint30.5 °F36 °F (1:52 am)25 °F (1:52 pm)
Humidity65.9 %93 % (3:52 am)39 % (6:52 pm)
Barometer30.04 in30.13 in (10:52 pm)29.97 in (2:52 am)
Wind Speed8.2 mph13.8 mph (10:52 am)
Wind Gust20.7 mph (2:52 pm)
Weather ElementAverage
Visibility9.6 mi
Wind DirectionWSW (261.8 °)

Weather ElementTotal
Precipitation---
Heating Degree Days21.5 (Base 65)
Averaged from 28 records on April 24, 2013
WEATHER CONDITIONS BREAKOUT
WIND DIRECTION BREAKOUT
WEATHER BY HOUR - APRIL 24, 2013
[ °C ]   °F
Local TimeTemperatureDewpointHumidityBarometerVisibilityWind DirectionWind SpeedGust SpeedPrecipitationEventsConditions
1:52 AM39.0 °F36.0 °F89 %29.98 in8.0 miNNE (30°)6.9 mphRainLight Rain
2:52 AM37.9 °F35.1 °F89 %29.97 in6.0 miNorth (10°)8.1 mphRainLight Rain
3:52 AM37.0 °F35.1 °F93 %29.99 in8.0 miNorth (360°)6.9 mphRainLight Rain
4:52 AM37.0 °F35.1 °F93 %30.00 in6.0 miVariable3.5 mphRainLight Rain
5:52 AM37.9 °F35.1 °F89 %30.00 in10.0 miNorth (350°)3.5 mphOvercast
6:49 AM37.4 °F35.6 °F93 %30.00 in10.0 miNorth (360°)3.5 mphOvercast
6:52 AM37.9 °F35.1 °F89 %30.01 in10.0 miNorth (360°)4.6 mphOvercast
6:59 AM37.4 °F33.8 °F87 %30.00 in10.0 miNorth (360°)3.5 mph
7:10 AM37.4 °F35.6 °F93 %30.00 in10.0 miCalmOvercast
7:39 AM39.2 °F33.8 °F81 %30.01 in10.0 miNorth (350°)4.6 mphOvercast
7:52 AM39.0 °F33.1 °F79 %30.03 in10.0 miNorth (350°)6.9 mphOvercast
8:22 AM39.2 °F30.2 °F70 %30.00 in10.0 miNorth (350°)10.4 mphOvercast
8:52 AM39.0 °F30.0 °F70 %30.02 in10.0 miNNW (340°)10.4 mphOvercast
9:52 AM39.0 °F28.0 °F65 %30.04 in10.0 miNNW (330°)8.1 mphOvercast
10:52 AM41.0 °F27.0 °F57 %30.06 in10.0 miNW (320°)13.8 mphOvercast
11:52 AM42.1 °F26.1 °F53 %30.05 in10.0 miNNW (330°)11.5 mphMostly Cloudy
12:52 PM44.1 °F27.0 °F51 %30.06 in10.0 miNNW (330°)11.5 mph19.6 mphMostly Cloudy
1:52 PM46.0 °F25.0 °F44 %30.05 in10.0 miNNW (340°)9.2 mphMostly Cloudy
2:52 PM48.0 °F26.1 °F42 %30.06 in10.0 miWest (280°)12.7 mph20.7 mph
3:52 PM48.9 °F26.1 °F41 %30.06 in10.0 miWest (270°)13.8 mph19.6 mph
4:52 PM50.0 °F27.0 °F41 %30.06 in10.0 miNW (310°)10.4 mph20.7 mph
5:52 PM50.0 °F27.0 °F41 %30.06 in10.0 miWest (270°)13.8 mphMostly Cloudy
6:52 PM50.0 °F26.1 °F39 %30.08 in10.0 miWest (270°)10.4 mph
7:52 PM48.0 °F27.0 °F44 %30.10 in10.0 miSW (230°)6.9 mph
8:52 PM46.9 °F28.9 °F50 %30.12 in10.0 miSW (220°)8.1 mph
9:52 PM46.0 °F28.9 °F51 %30.12 in10.0 miSSW (210°)6.9 mph
10:52 PM45.0 °F28.9 °F53 %30.13 in10.0 miSSW (200°)10.4 mph
11:52 PM44.1 °F30.0 °F58 %30.12 in10.0 miSSW (200°)9.2 mph
Hourly data recorded from KPWK, located miles away from Chicago, Illinois







STORIES FROM OUR PARTNERS